Home > Time Zones > World Clock > Weather > Germany > Ulm > Past weeks

Flag for Germany Weather past 2 weeks in Ulm, Baden-Württemberg, Germany

Now
52 °F

Passing clouds.


Feels Like: 52 °F
Forecast: 53 / 65 °F
Wind: 1 mph from West

Location: Laupheim Airport

Current Time: Sep 2, 2014 at 4:58:39 AM

Latest Report: Sep 2, 2014 at 4:20 AM


Visibility: N/A

Pressure: 30.15 "Hg

Humidity: 94%

Dew point: 50 °F

Location of UlmLocation

Historic Weather in Ulm — Graph

°F

Ulm temperature yesterday

Maximum temperature yesterday: 59 °F (at 5:20 PM)
Minimum temperature yesterday: 50 °F (at 4:20 AM)
Average temperature yesterday: 54 °F

Past Weeks' High & Low Weather Summary

 TemperatureHumidityPressure
High72 °F (Aug 28, 3:20 PM)100% (Aug 19, 3:20 AM)30.18 "Hg (Aug 19, 3:20 AM)
Low45 °F (Aug 22, 6:20 AM)43% (Aug 19, 5:20 PM)29.74 "Hg (Aug 26, 6:20 AM)
Average58 °F80%30.02 "Hg
* Reported Aug 18 3:20 AM — Sep 2 3:20 AM, Ulm, Weather by CustomWeather, © 2014

Note: Actual official high and low records may vary slightly from our data, if they occured in-between our weather recording intervals... More about our weather records

Advertising

Ulm weather history for previous 24 hours

 ConditionsComfort  
Time TempWeatherWind HumidityBarometerVisibility
3:20 AM
Sep 2
52 °FPassing clouds.1 mph94%30.15 "HgN/A
2:20 AM54 °FPassing clouds.1 mph88%30.15 "HgN/A
1:20 AM54 °FPassing clouds.2 mph94%30.15 "HgN/A
12:20 AM54 °FPassing clouds.3 mph94%30.15 "HgN/A
11:20 PM
Sep 1
54 °FPassing clouds.2 mph94%30.18 "HgN/A
10:20 PM54 °FPassing clouds.2 mph88%30.18 "HgN/A
9:20 PM54 °FPassing clouds.No wind88%30.18 "HgN/A
8:20 PM55 °FPartly sunny.2 mph77%30.15 "HgN/A
7:20 PM55 °FPartly sunny.2 mph77%30.15 "HgN/A
6:20 PM57 °FPartly sunny.1 mph72%30.15 "HgN/A
5:20 PM59 °FPartly sunny.1 mph68%30.15 "HgN/A
4:20 PM57 °FPartly sunny.3 mph72%30.15 "HgN/A
3:20 PM57 °FPartly sunny.5 mph72%30.15 "HgN/A
2:20 PM55 °FBroken clouds.5 mph77%30.15 "HgN/A
1:20 PM55 °FBroken clouds.2 mph77%30.15 "HgN/A
12:20 PM54 °FPartly sunny.3 mph82%30.12 "HgN/A
11:20 AM55 °FBroken clouds.7 mph77%30.12 "HgN/A
10:20 AM54 °FScattered clouds.5 mph82%30.12 "HgN/A
9:20 AM54 °FScattered clouds.5 mph88%30.12 "HgN/A
8:20 AM52 °FScattered clouds.2 mph94%30.09 "HgN/A
7:20 AM52 °FPassing clouds.1 mph94%30.07 "Hg6 mi
6:20 AM52 °FPartly cloudy.1 mph94%30.07 "HgN/A
5:20 AM52 °FPassing clouds.3 mph94%30.04 "HgN/A
4:20 AM50 °FPassing clouds.2 mph100%30.04 "HgN/A
Weather by CustomWeather, © 2014

See weather overviewHow to use our weather pages